Regional Weather Roundup
Issued by NWS

Home | Current Version | Previous Version | Text Only | Print | Product List | Glossary On
Versions: 1 2 3 4 5 6 7 8 9 10 11 12 13 14 15 16 17 18 19 20 21 22 23 24 25 26 27 28 29 30 31 32 33 34 35 36 37 38 39 40 41 42 43 44 45 46 47 48 49 50
000
ASUS45 KABQ 231910
RWRNM
NEW MEXICO REGIONAL WEATHER ROUNDUP
NATIONAL WEATHER SERVICE ALBUQUERQUE NM
1200 PM MST FRI FEB 23 2018

NOTE: "FAIR" MEANS FEW OR NO CLOUDS BELOW 12,000 FEET AGL WITH NO
       SIGNIFICANT WEATHER OR OBSTRUCTIONS TO VISION.

      THIS PRODUCT IS RELEASED AS TWO VERSIONS.  ONE VERSION NEAR
      THE TOP OF THE HOUR CONTAINING PRELIMINARY DATA FROM ALBUQUERQUE
      AND OTHER STATIONS.  A FINAL VERSION WITH ADDITIONAL DATA IS
      ISSUED ABOUT 10 MINUTES AFTER THE HOUR.

NMZ501-503-504-510>518-232000-
NORTHWEST PLATEAU/NORTHCENTRAL MOUNTAINS

CITY           SKY/WX    TMP DP  RH WIND       PRES   REMARKS
FARMINGTON     FAIR      40  13  33 SE10G17   29.97F WCI  33
LOS ALAMOS     FAIR      37  15  39 S16G23    30.00F WCI  28
SANTA FE       FAIR      43  11  27 VRB3      30.00F
TAOS           FAIR      36  13  38 SW15G21   30.02F WCI  27
ANGEL FIRE     FAIR      33   9  37 CALM      29.99F

$$
NMZ402-403-502-505>509-232000-
WESTCENTRAL MOUNTAINS/SOUTHWEST MOUNTAINS

CITY           SKY/WX    TMP DP  RH WIND       PRES   REMARKS
GALLUP         FAIR      35  18  49 W12       29.98F WCI  27
GRANTS         FAIR      45  12  26 SE5       29.97F
SILVER CITY    FAIR      52  13  21 SW14G20   30.06F

$$
NMZ407-409-411-412-232000-
SOUTHERN DESERTS

CITY           SKY/WX    TMP DP  RH WIND       PRES   REMARKS
DEMING         FAIR      56  20  24 SW10      30.07F
LAS CRUCES     FAIR      59  18  20 SW13      30.07F
HOLLOMAN AFB   FAIR      63  20  19 SE14G20   30.07F
ALAMOGORDO     FAIR      59  25  27 S17G25    30.06F
T OR C         FAIR      58  13  17 S24G35    29.98F

$$
NMZ519>523-232000-
CENTRAL VALLEYS/CENTRAL HIGHLANDS

CITY           SKY/WX    TMP DP  RH WIND       PRES   REMARKS
ALBUQUERQUE    FAIR      45  18  34 S10       30.00F
DOUBLE EAGLE   SUNNY     45  16  31 SE9       30.01F
MORIARTY ARPT  FAIR      53  12  19 S18G28    30.00F
CLINES CORNERS FAIR      48   9  20 SW30G38   30.00F
BELEN          FAIR      53  12  19 S21       29.99F
SOCORRO        FAIR      54  15  21 S15G23    30.00F

$$
NMZ524>526-539-540-232000-
SOUTHCENTRAL MOUNTAINS

CITY           SKY/WX    TMP DP  RH WIND       PRES   REMARKS
RUIDOSO        FAIR      50   5  16 SW28G35   30.05F

$$
NMZ527>531-232000-
NORTHEAST HIGHLANDS/NORTHEAST PLAINS

CITY           SKY/WX    TMP DP  RH WIND       PRES   REMARKS
LAS VEGAS      FAIR      47  10  22 SW22G31   29.98F
RATON          FAIR      47   4  17 SW10      29.95F
CLAYTON        FAIR      55   6  14 S21G35    29.98F

$$
NMZ532>537-232000-
EASTCENTRAL PLAINS

CITY           SKY/WX    TMP DP  RH WIND       PRES   REMARKS
SANTA ROSA     FAIR      58  13  17 S16G23    29.97F
TUCUMCARI      FAIR      64  14  14 VRB6G22   29.97F
CANNON AFB     FAIR      63  20  19 SW15      30.01F
CLOVIS AIRPORT NOT AVBL

$$
NMZ028-029-538-232000-
SOUTHEAST PLAINS

CITY           SKY/WX    TMP DP  RH WIND       PRES   REMARKS
ROSWELL        FAIR      59  29  31 SE8       30.00F
ARTESIA        FAIR      66  27  22 S21G28    30.00F
CARLSBAD       FAIR      62  31  31 SE10      30.01F
HOBBS          SUNNY     64  27  24 SE9       30.04F


$$




USA.gov is the U.S. government's official web portal to all federal, state and local government web resources and services.